This demonstration page uses our WeatherBlox Daily Observations layout. Learn more.

Left ArrowRight Arrow

Hourly Observations for July 24, 2016

Temp ( °F °C ) Dew Point ( °F °C ) Humidity (%) Winds ( mph kmh ) Pressure ( in mb ) Visibility ( mi km ) Precip ( " mm )
12:15 am 00:15 Clear 74 23.6 71 21.6 89 89 N N/A 29.80 1009 10 16 N/A
12:35 am 00:35 Clear 73 23 70 21.3 90 90 NNE 3 6 29.80 1009 10 16 N/A
12:55 am 00:55 Clear 73 23 71 21.5 91 91 N N/A 29.80 1009 10 16 N/A
1:15 am 01:15 Clear 76 24.2 71 21.8 87 87 N 8 13 29.83 1010 10 16 N/A
1:35 am 01:35 Clear 75 23.7 69 20.7 83 83 NNE 10 17 29.83 1010 10 16 N/A
1:55 am 01:55 Clear 73 23 68 20.1 84 84 N 7 11 29.83 1010 10 16 N/A
2:15 am 02:15 Clear 73 22.9 67 19.5 81 81 N 8 13 29.83 1010 10 16 N/A
2:35 am 02:35 Clear 72 22.3 66 19.1 82 82 NNE 9 15 29.85 1011 10 16 N/A
2:55 am 02:55 Clear 72 22.2 66 18.8 81 81 NNE 9 15 29.85 1011 10 16 N/A
3:15 am 03:15 Clear 72 22.2 66 18.8 81 81 NNE 8 13 29.85 1011 10 16 N/A
3:35 am 03:35 Clear 71 21.9 65 18.6 82 82 NNE 9 15 29.85 1011 10 16 N/A
3:55 am 03:55 Clear 71 21.5 65 18.6 84 84 NNE 8 13 29.85 1011 10 16 N/A
4:15 am 04:15 Clear 70 21.3 65 18.5 84 84 NNE 8 13 29.85 1011 10 16 N/A
4:35 am 04:35 Clear 70 21.1 65 18.5 85 85 N 7 11 29.85 1011 10 16 N/A
4:55 am 04:55 Clear 69 20.8 65 18.5 87 87 NE 6 9 29.85 1011 10 16 N/A
5:15 am 05:15 Clear 68 20.2 65 18.2 88 88 NNE 6 9 29.85 1011 10 16 N/A
5:35 am 05:35 Clear 69 20.3 65 18.3 88 88 NNE 7 11 29.85 1011 10 16 N/A
5:55 am 05:55 Clear 69 20.5 65 18.1 86 86 NE 5 7 29.88 1012 10 16 N/A
6:15 am 06:15 Clear 68 20.2 65 18.1 88 88 N 3 6 29.88 1012 10 16 N/A
6:35 am 06:35 Sunny 68 20 65 18.1 89 89 NNE 6 9 29.88 1012 10 16 N/A
6:55 am 06:55 Sunny with Nearby Thunderstorms 69 20.4 64 17.7 85 85 NNE 7 11 29.88 1012 10 16 N/A
7:15 am 07:15 Sunny with Nearby Thunderstorms 69 20.5 64 17.7 84 84 NNE 5 7 29.88 1012 10 16 N/A
7:35 am 07:35 Sunny 70 21.3 64 17.9 81 81 NNE 6 9 29.91 1013 10 16 N/A
7:55 am 07:55 Sunny 71 21.8 64 17.8 78 78 E 5 7 29.94 1014 10 16 N/A
8:15 am 08:15 Sunny with Nearby Thunderstorms 72 22.2 65 18.2 78 78 ENE 6 9 29.94 1014 10 16 N/A
8:35 am 08:35 Sunny 73 22.6 65 18.1 76 76 ENE 8 13 29.94 1014 10 16 N/A
8:55 am 08:55 Sunny 73 22.8 65 18.3 76 76 E 9 15 29.97 1015 10 16 N/A
9:15 am 09:15 Sunny 75 23.7 64 17.6 69 69 E 15 24 29.94 1014 10 16 N/A
9:35 am 09:35 Sunny 76 24.4 64 17.7 66 66 E 14 22 29.94 1014 10 16 N/A
9:55 am 09:55 Sunny 75 23.7 63 17.2 67 67 E 16 26 29.94 1014 10 16 N/A
10:15 am 10:15 Sunny 76 24.2 62 16.8 63 63 E 10 17 29.94 1014 10 16 N/A
10:35 am 10:35 Sunny 76 24.2 61 16.1 61 61 NE 16 26 29.91 1013 10 16 N/A
10:55 am 10:55 Sunny 77 25 61 15.9 57 57 ENE 15 24 29.94 1014 10 16 N/A
11:15 am 11:15 Sunny 77 25.1 60 15.8 56 56 ENE 12 19 29.94 1014 10 16 N/A
11:35 am 11:35 Sunny 79 26.2 60 15.7 52 52 ENE 12 19 29.94 1014 10 16 N/A
11:55 am 11:55 Partly Cloudy 80 26.5 59 14.9 49 49 NE 14 22 29.97 1015 10 16 N/A
12:15 pm 12:15 Partly Cloudy 80 26.5 58 14.7 48 48 NNE 14 22 29.97 1015 10 16 N/A
12:35 pm 12:35 Sunny 82 27.6 58 14.2 44 44 NNE 14 22 29.97 1015 10 16 N/A
12:55 pm 12:55 Sunny 82 27.9 59 14.8 45 45 NE 17 28 29.94 1014 10 16 N/A
1:15 pm 13:15 Sunny 83 28.1 57 13.9 42 42 NE 17 28 29.94 1014 10 16 N/A
1:35 pm 13:35 Sunny 83 28.4 57 13.8 41 41 NNE 16 26 29.94 1014 10 16 N/A
1:55 pm 13:55 Sunny 84 28.7 58 14.6 42 42 NNE 18 30 29.94 1014 10 16 N/A
2:15 pm 14:15 Sunny 84 28.8 56 13.2 38 38 NNE 17 28 29.91 1013 10 16 N/A
2:35 pm 14:35 Sunny 84 29 57 13.9 40 40 NE 14 22 29.91 1013 10 16 N/A
2:55 pm 14:55 Sunny 85 29.2 57 13.7 39 39 NE 16 26 29.91 1013 10 16 N/A
3:15 pm 15:15 Sunny 85 29.4 58 14.3 40 40 ENE 16 26 29.91 1013 10 16 N/A
3:35 pm 15:35 Sunny 85 29.3 58 14.7 41 41 ENE 15 24 29.91 1013 10 16 N/A
3:55 pm 15:55 Sunny 85 29.2 58 14.4 40 40 ENE 16 26 29.91 1013 10 16 N/A
4:15 pm 16:15 Sunny 85 29.5 59 15.1 42 42 E 13 20 29.91 1013 10 16 N/A
4:35 pm 16:35 Sunny 85 29.4 59 15.1 42 42 E 15 24 29.91 1013 10 16 N/A
4:55 pm 16:55 Sunny 85 29.5 58 14.6 40 40 E 20 31 29.91 1013 10 16 N/A
5:15 pm 17:15 Sunny 84 29.1 58 14.4 41 41 E 18 30 29.88 1012 10 16 N/A
5:35 pm 17:35 Sunny 84 28.8 59 14.8 42 42 E 15 24 29.91 1013 10 16 N/A
5:55 pm 17:55 Sunny 83 28.6 59 14.8 43 43 E 15 24 29.91 1013 10 16 N/A
6:15 pm 18:15 Sunny 83 28.6 59 15 44 44 E 13 20 29.91 1013 10 16 N/A
6:35 pm 18:35 Sunny 83 28.1 59 14.8 44 44 ENE 13 20 29.91 1013 10 16 N/A
6:55 pm 18:55 Sunny 82 28 60 15.8 47 47 ENE 9 15 29.91 1013 10 16 N/A
7:15 pm 19:15 Sunny 82 27.5 60 15.7 49 49 ENE 9 15 29.91 1013 10 16 N/A
7:35 pm 19:35 Sunny 80 26.8 62 16.9 55 55 ENE 7 11 29.94 1014 10 16 N/A
7:55 pm 19:55 Sunny 79 26.2 64 17.5 59 59 ENE 7 11 29.97 1015 10 16 N/A
8:15 pm 20:15 Sunny 77 25.1 64 17.8 64 64 E 7 11 29.94 1014 10 16 N/A
8:35 pm 20:35 Sunny 74 23.6 64 18 71 71 E 6 9 30.00 1016 10 16 N/A
8:55 pm 20:55 Sunny 73 22.7 64 17.5 73 73 ENE 3 6 30.00 1016 10 16 N/A
9:15 pm 21:15 Clear 72 22.2 64 18 77 77 NE 6 9 30.00 1016 10 16 N/A
9:35 pm 21:35 Clear 71 21.8 65 18.3 81 81 NE 5 7 30.03 1017 10 16 N/A
9:55 pm 21:55 Clear 71 21.8 65 18.2 80 80 E 5 7 30.03 1017 10 16 N/A
10:15 pm 22:15 Clear 72 22.1 64 17.5 75 75 E 6 9 30.03 1017 10 16 N/A
10:35 pm 22:35 Clear 71 21.5 65 18.1 81 81 ENE 5 7 30.03 1017 10 16 N/A
10:55 pm 22:55 Clear 70 21.2 65 18.3 84 84 ENE 6 9 30.03 1017 10 16 N/A
11:15 pm 23:15 Clear 70 21.3 64 17.8 81 81 E 3 6 30.03 1017 10 16 N/A
11:35 pm 23:35 Clear 69 20.6 65 18.2 86 86 NE 5 7 30.06 1018 10 16 N/A
11:55 pm 23:55 Clear 69 20.4 64 18 86 86 E 5 7 30.06 1018 10 16 N/A

Powered by AerisWeather